Spokane, WA

8:51 PM PST on February 21, 2017 (GMT -0800)
Felts

Weather History for KSFF - May, 2014

Change the Weather History Date:

Friday, May 16, 2014

  Actual Average Record
Temperature  
Mean Temperature 66 °F 55 °F  
Max Temperature 77 °F 68 °F 91 °F (2006)
Min Temperature 55 °F 42 °F 35 °F (1998)
Degree Days  
Heating Degree Days 0 10  
Month to date heating degree days 136 196  
Since 1 July heating degree days 6057 6051  
Cooling Degree Days 1 0  
Month to date cooling degree days 2 0  
Year to date cooling degree days 2 0  
Growing Degree Days 17 (Base 50)    
Moisture  
Dew Point 43 °F    
Average Humidity 47    
Maximum Humidity 77    
Minimum Humidity 16    
Precipitation  
Precipitation T in 0.06 in 0.42 in (2005)
Month to date precipitation 0.86 0.81  
Year to date precipitation 7.50 6.95  
Sea Level Pressure  
Sea Level Pressure 29.92 in    
Wind  
Wind Speed 6 mph (East)    
Max Wind Speed 21 mph    
Max Gust Speed 27 mph    
Visibility 10 miles    
Events Rain    
T = Trace of Precipitation, MM = Missing Value Source: NWS Daily Summary

Daily Weather History Graph

Daily Weather History Graph

Search for Another Location

Airport or City:

Trip Planner

Search our weather history database for the weather conditions in past years. The results will help you decide how hot, cold, wet, or windy it might be!

Date:

Astronomy

May. 16, 2014 Rise Set
Actual Time 5:10 AM PDT 8:21 PM PDT
Civil Twilight 4:33 AM PDT 8:58 PM PDT
Nautical Twilight 3:45 AM PDT 9:47 PM PDT
Astronomical Twilight 2:45 AM PDT 10:48 PM PDT
Moon 10:32 PM PDT (5/16) 6:56 AM PDT (5/16)
Length of Visible Light 16h 25m
Length of Day
15h 11m
Waning Gibbous, 95% of the Moon is Illuminated
May 16
Waning Gibbous
May 21
Last Quarter
May 28
New
Jun 5
First Quarter
Jun 12
Full

Hourly Weather History & Observations

Time (PDT) Temp. Dew Point Humidity Pressure Visibility Wind Dir Wind Speed Gust Speed Precip Events Conditions
12:53 AM 62.1 °F 48.9 °F 62% 29.94 in 10.0 mi NE 3.5 mph - N/A   Clear
1:53 AM 61.0 °F 48.9 °F 64% 29.94 in 10.0 mi Calm Calm - N/A   Clear
2:53 AM 57.9 °F 50.0 °F 75% 29.94 in 10.0 mi Calm Calm - N/A   Clear
3:53 AM 59.0 °F 48.0 °F 67% 29.94 in 10.0 mi Calm Calm - N/A   Scattered Clouds
4:53 AM 57.0 °F 48.9 °F 74% 29.94 in 10.0 mi NNE 4.6 mph - 0.00 in Rain Light Rain
5:53 AM 57.0 °F 48.9 °F 74% 29.96 in 10.0 mi NNE 3.5 mph - 0.00 in   Scattered Clouds
6:53 AM 60.1 °F 48.0 °F 64% 29.96 in 10.0 mi NNE 4.6 mph - N/A   Overcast
7:53 AM 64.0 °F 44.1 °F 48% 29.96 in 10.0 mi ESE 6.9 mph - N/A   Mostly Cloudy
8:53 AM 66.0 °F 46.0 °F 48% 29.98 in 10.0 mi East 9.2 mph - N/A   Mostly Cloudy
9:53 AM 66.9 °F 46.9 °F 49% 29.97 in 10.0 mi East 10.4 mph - N/A   Overcast
10:53 AM 70.0 °F 45.0 °F 41% 29.97 in 10.0 mi East 6.9 mph - N/A   Mostly Cloudy
11:53 AM 71.1 °F 39.0 °F 31% 29.95 in 10.0 mi SE 8.1 mph - N/A   Scattered Clouds
12:53 PM 73.4 °F 37.4 °F 27% 29.97 in 10.0 mi SSW 9.2 mph - N/A   Scattered Clouds
1:53 PM 75.0 °F 37.0 °F 25% 29.92 in 10.0 mi SE 10.4 mph - N/A   Clear
2:53 PM 75.9 °F 30.9 °F 19% 29.90 in 10.0 mi SW 9.2 mph - N/A   Clear
3:53 PM 77.0 °F 28.0 °F 17% 29.88 in 10.0 mi SW 6.9 mph - N/A   Partly Cloudy
4:53 PM 75.9 °F 28.0 °F 17% 29.87 in 10.0 mi SSE 5.8 mph - N/A   Partly Cloudy
5:53 PM 75.0 °F 36.0 °F 24% 29.85 in 10.0 mi NE 3.5 mph - N/A   Scattered Clouds
6:53 PM 73.9 °F 37.0 °F 26% 29.85 in 10.0 mi South 10.4 mph - N/A   Scattered Clouds
7:53 PM 71.6 °F 37.4 °F 29% 29.88 in 10.0 mi SSW 3.5 mph - N/A   Mostly Cloudy
8:53 PM 66.0 °F 46.9 °F 50% 29.87 in 10.0 mi North 9.2 mph 17.3 mph N/A   Mostly Cloudy
9:53 PM 64.9 °F 46.9 °F 52% 29.87 in 10.0 mi Calm Calm - N/A   Clear
10:53 PM 60.1 °F 48.9 °F 67% 29.86 in 10.0 mi Calm Calm - N/A   Clear
11:53 PM 61.0 °F 48.0 °F 62% 29.87 in 10.0 mi NE 3.5 mph - N/A   Overcast